Flag for Switzerland Weather past 2 weeks in La-Chaux-de-Fonds, Neuchâtel, Switzerland

Now
54 °F

Broken clouds.


Feels Like: 51 °F
Forecast: 42 / 56 °F
Wind: 9 mph from North

Location: Les Eplatures

Current Time: Aug 23, 2014 at 5:29:32 PM

Latest Report: Aug 23, 2014 at 4:50 PM


Visibility: N/A

Pressure: 30.07 "Hg

Humidity: 72%

Dew point: 45 °F

Location of La-Chaux-de-FondsLocation

Historic Weather in La-Chaux-de-Fonds — Graph

°F

La-Chaux-de-Fonds temperature yesterday

Maximum temperature yesterday: 59 °F (at 1:50 PM)
Minimum temperature yesterday: 41 °F (at 3:50 AM)
Average temperature yesterday: 51 °F

Past Weeks' High & Low Weather Summary

 TemperatureHumidityPressure
High77 °F (Aug 10, 2:20 PM)100% (Aug 8, 8:20 PM)30.24 "Hg (Aug 8, 8:20 PM)
Low37 °F (Aug 17, 5:20 AM)44% (Aug 10, 2:50 PM)29.74 "Hg (Aug 13, 8:20 AM)
Average53 °F85%30.04 "Hg
* Reported Aug 8 4:20 PM — Aug 23 4:20 PM, La-Chaux-de-Fonds, Weather by CustomWeather, © 2014

Note: Actual official high and low records may vary slightly from our data, if they occured in-between our weather recording intervals... More about our weather records

Advertising

La-Chaux-de-Fonds weather history for previous 24 hours

 ConditionsComfort  
Time TempWeatherWind HumidityBarometerVisibility
4:20 PM
Aug 23
55 °FBroken clouds.9 mph67%30.07 "HgN/A
3:50 PM55 °FBroken clouds.10 mph63%30.07 "HgN/A
3:20 PM57 °FBroken clouds.10 mph67%30.07 "HgN/A
2:50 PM54 °FBroken clouds.8 mph72%30.07 "HgN/A
2:20 PM55 °FBroken clouds.8 mph72%30.09 "HgN/A
1:50 PM54 °FBroken clouds.7 mph72%30.07 "HgN/A
1:20 PM54 °FBroken clouds.10 mph72%30.07 "HgN/A
12:50 PM55 °FBroken clouds.7 mph72%30.07 "HgN/A
12:20 PM54 °FBroken clouds.8 mph77%30.07 "HgN/A
11:50 AM54 °FBroken clouds.12 mph72%30.07 "HgN/A
11:20 AM54 °FBroken clouds.8 mph72%30.07 "HgN/A
10:50 AM54 °FBroken clouds.7 mph77%30.07 "HgN/A
10:20 AM52 °FClear.6 mph77%30.07 "HgN/A
9:50 AM52 °FBroken clouds.6 mph82%30.07 "HgN/A
9:20 AM48 °FPartly sunny.2 mph94%30.07 "HgN/A
8:50 AM48 °FPartly sunny.2 mph87%30.07 "HgN/A
8:20 AM46 °FPassing clouds.1 mph93%30.07 "HgN/A
7:50 AM46 °FClear.2 mph93%30.07 "Hg10 mi
7:20 AM45 °FClear.1 mph93%30.07 "HgN/A
6:50 AM45 °FClear.2 mph100%30.07 "HgN/A
6:20 AM46 °FOvercast.2 mph93%30.04 "HgN/A
5:50 AM46 °FPartly cloudy.2 mph93%30.04 "HgN/A
5:20 AM48 °FPassing clouds.1 mph94%30.07 "HgN/A
4:50 AM46 °FPassing clouds.1 mph100%30.07 "HgN/A
4:20 AM48 °FMostly cloudy.2 mph94%30.07 "HgN/A
3:50 AM46 °FClear.1 mph93%30.07 "Hg10 mi
3:20 AM46 °FClear.2 mph93%30.07 "Hg10 mi
2:50 AM45 °FClear.2 mph93%30.07 "HgN/A
2:20 AM45 °FQuite cool.2 mph93%30.07 "HgN/A
1:50 AM46 °FClear.1 mph93%30.07 "HgN/A
1:20 AM46 °FOvercast.1 mph93%30.07 "HgN/A
12:50 AM46 °FPassing clouds.1 mph93%30.07 "HgN/A
12:20 AM45 °FClear.1 mph100%30.07 "Hg10 mi
11:50 PM
Aug 22
45 °FClear.1 mph93%30.07 "Hg10 mi
11:20 PM46 °FClear.1 mph93%30.07 "Hg10 mi
10:50 PM46 °FClear.1 mph87%30.07 "Hg10 mi
10:20 PM46 °FSunny.No wind93%30.07 "Hg10 mi
9:50 PM48 °FSunny.No wind87%30.07 "Hg10 mi
9:20 PM48 °FSunny.1 mph87%30.07 "Hg10 mi
8:50 PM50 °FSunny.1 mph88%30.07 "Hg10 mi
8:20 PM52 °FCool.2 mph82%30.07 "HgN/A
7:50 PM55 °FScattered clouds.6 mph72%30.04 "HgN/A
7:20 PM57 °FScattered clouds.5 mph67%30.04 "HgN/A
6:50 PM57 °FScattered clouds.7 mph67%30.04 "HgN/A
6:20 PM59 °FPartly sunny.3 mph68%30.04 "HgN/A
5:50 PM57 °FBroken clouds.5 mph67%30.04 "HgN/A
5:20 PM57 °FBroken clouds.6 mph67%30.04 "HgN/A
Weather by CustomWeather, © 2014

See weather overviewHow to use our weather pages